Flag for Canada Weather past 2 weeks in Granby, Quebec, Canada

Now
66 °F

Mild.


Feels Like: 66 °F
Forecast: 56 / 79 °F
Wind: 2 mph from Southwest

Location: Frelighsburg

Current Time: Aug 31, 2015 at 9:59:50 PM

Latest Report: Aug 31, 2015 at 9:00 PM


Visibility: N/A

Pressure: 29.97 "Hg

Humidity: 89%

Dew point: 63 °F

Location of GranbyLocation

Historic Weather in Granby — Graph

°F

Granby temperature yesterday

Maximum temperature yesterday: 75 °F (at 3:00 PM)
Minimum temperature yesterday: 61 °F (at 3:00 AM)
Average temperature yesterday: 67 °F

Past Weeks' High & Low Weather Summary

 TemperatureHumidityPressure
High86 °F (Aug 19, 3:00 PM)100% (Aug 21, 10:00 AM)30.19 "Hg (Aug 21, 10:00 AM)
Low54 °F (Aug 29, 6:00 AM)41% (Aug 23, 5:00 PM)29.79 "Hg (Aug 24, 5:00 PM)
Average69 °F78%30.00 "Hg
* Reported Aug 16 8:00 PM — Aug 31 8:00 PM, Granby, Weather by CustomWeather, © 2015

Note: Actual official high and low records may vary slightly from our data, if they occured in-between our weather recording intervals... More about our weather records

Advertising

Granby weather history for previous 24 hours

 ConditionsComfort  
Time TempWeatherWind HumidityBarometerVisibility
8:00 PM
Mon, Aug 31
66 °FMild.1 mph89%29.95 "HgN/A
7:00 PM70 °FMild.2 mph78%29.93 "HgN/A
6:00 PM72 °FMild.5 mph73%29.93 "HgN/A
5:00 PM72 °FMild.5 mph75%29.92 "HgN/A
4:00 PM73 °FMild.5 mph76%29.92 "HgN/A
3:00 PM74 °FMild.6 mph71%29.91 "HgN/A
2:00 PM72 °FMild.6 mph75%29.90 "HgN/A
1:00 PM73 °FMild.6 mph73%29.92 "HgN/A
12:00 PM71 °FMild.6 mph78%29.92 "HgN/A
11:00 AM71 °FMild.5 mph83%29.92 "HgN/A
10:00 AM71 °FMild.6 mph80%29.91 "HgN/A
9:00 AM67 °FMild.3 mph84%29.92 "HgN/A
8:00 AM65 °FMild.3 mph86%29.92 "HgN/A
7:00 AM63 °FMild.3 mph92%29.92 "HgN/A
6:00 AM63 °FMild.5 mph95%29.92 "HgN/A
5:00 AM61 °FCool.3 mph97%29.93 "HgN/A
4:00 AM61 °FCool.2 mph98%29.94 "HgN/A
3:00 AM60 °FCool.3 mph100%29.95 "HgN/A
2:00 AM63 °FMild.2 mph96%29.96 "HgN/A
1:00 AM65 °FMild.2 mph92%29.97 "HgN/A
12:00 AM66 °FMild.2 mph88%29.98 "HgN/A
11:00 PM
Sun, Aug 30
67 °FMild.2 mph86%29.98 "HgN/A
10:00 PM68 °FMild.2 mph78%29.99 "HgN/A
9:00 PM68 °FMild.No wind78%29.99 "HgN/A
Weather by CustomWeather, © 2015

See weather overviewHow to use our weather pages